Location: Igon
(43.1667°N, 0.2333°W)
Time: 07:43:26
(UTC+00:00)

NOAA 16 DEB - Pass Details

Date: 24 June 2021
Orbit: 682 x 809 km, 98.9° (Epoch: 03 August)

Event Time Altitude Azimuth Distance (km) Brightness Sun altitude
Rises 03:21:23 0° 147° (SSE) 3,316 ? -9.4°
Reaches altitude 10° 03:23:47 10° 141° (SE) 2,391 ? -9.1°
Maximum altitude 03:28:50 46° 69° (ENE) 1,072 ? -8.4°
Drops below altitude 10° 03:33:52 10° 358° (N) 2,385 ? -7.7°
Sets 03:36:16 0° 352° (N) 3,307 ? -7.4°
